Regional Weather Roundup
Issued by NWS

Home | Current Version | Previous Version | Text Only | Print | Product List | Glossary On
Versions: 1 2 3 4 5 6 7 8 9 10 11 12 13 14 15 16 17 18 19 20 21 22 23 24 25 26 27 28 29 30 31 32 33 34 35 36 37 38 39 40 41 42 43 44 45 46 47 48 49 50
000
ASUS46 KLOX 221612
RWRCA

SOUTHERN CALIFORNIA WEATHER ROUNDUP
NATIONAL WEATHER SERVICE OXNARD CALIFORNIA
900 AM PDT MON SEP 22 2014

NOTE: "FAIR" INDICATES FEW OR NO CLOUDS BELOW 12,000 FEET WITH NO
SIGNIFICANT WEATHER AND/OR OBSTRUCTIONS TO VISIBILITY.

  -  STATIONS PRECEEDED BY AN ASTERISK (*) ARE NOT NWS OR FAA
     STATIONS AND ARE NOT SUBJECT TO NWS AND FAA QUALITY CONTROL.

CAZ041-042-087-221700-
LA AND ORANGE COUNTY COASTAL AREAS


CITY           SKY/WX    TMP DP  RH WIND       PRES   REMARKS
L.A. DOWNTOWN  SUNNY     70  63  78 CALM      29.98R
L.A. AIRPORT   MOSUNNY   70  63  78 SW3       29.99R
LONG BEACH     SUNNY     71  63  75 CALM      29.98R

CITY           SKY/WX    TMP DP  RH WIND       PRES   REMARKS
AVALON           N/A     68 N/A N/A MISG        N/A
FULLERTON      SUNNY     70  60  70 CALM      29.98R
*GETTY CENTER    N/A     68  59  73 S2          N/A
HAWTHORNE      SUNNY     70  63  78 CALM      29.99R
*REDONDO BEACH   N/A     68  65  89 W2        29.98R
SANTA ANA      MOSUNNY   72  62  71 CALM      29.98S
STA MONICA APT MOSUNNY   69  62  78 CALM      29.99R
TORRANCE       MOSUNNY   72  64  78 CALM      29.99R
*UCLA            N/A    N/A N/A N/A SE3       29.97R

$$

CAZ547-548-048-221700-
LA COUNTY VALLEYS AND INLAND EMPIRE


CITY           SKY/WX    TMP DP  RH WIND       PRES   REMARKS
BURBANK        SUNNY     68  52  56 CALM      29.99R
VAN NUYS       SUNNY     69  57  65 CALM      29.99R

CITY           SKY/WX    TMP DP  RH WIND       PRES   REMARKS
CORONA AIRPORT SUNNY     67  59  75 CALM      30.00R
*CHATSWORTH      N/A     72  61  67 CALM      29.96R
CHINO          SUNNY     68  59  73 CALM      30.00R
MARCH AFB      SUNNY     69  58  68 CALM      30.01R
*NORTHRIDGE      N/A     72  57  60 SE1         N/A
ONTARIO        SUNNY     70  59  68 CALM      29.99R
*PASADENA        N/A     75  59  57 NE6         N/A
RIVERSIDE      SUNNY     67  59  75 W3        29.99R
SAN BERNARDINO SUNNY     66  50  55 CALM      30.00R
*SAN GABRIEL     N/A     71  58  64 CALM      29.95S
*WHITEMAN AP   SUNNY     72  45  37 CALM      30.02R
*WOODLAND HILL   N/A     72  59  64 N2          N/A

$$

CAZ054-055-221700-
LA AND SAN BERNARDINO COUNTY MOUNTAINS


CITY           SKY/WX    TMP DP  RH WIND       PRES   REMARKS
*BIG BEAR AIRP SUNNY     54  34  47 CALM      30.30S
*CHILAO          N/A     71  36  28 SE13        N/A
MT WILSON NWS    N/A     72  34  25 S2          N/A
SANDBERG       SUNNY     75  41  29 NE3       30.16R
*WARM SPRINGS    N/A     79  38  23 NE5         N/A

$$

CAZ028-029-059-060-099-221700-
ANTELOPE VALLEY AND SURROUNDING AREAS


CITY           SKY/WX    TMP DP  RH WIND       PRES   REMARKS
LANCASTER      SUNNY     68  46  45 CALM      30.06S
PALMDALE       SUNNY     73  38  27 CALM      30.07R

CITY           SKY/WX    TMP DP  RH WIND       PRES   REMARKS
29 PALMS       SUNNY     75  43  31 N6        30.10R
BARSTOW/DAGGET SUNNY     76  44  32 W9        30.03R
BISHOP         SUNNY     68  43  40 VRB3      30.15R
CHINA LAKE     SUNNY     75  48  38 NW3       30.05R
EDWARDS AFB    SUNNY     67  43  42 CALM      30.05R
MOJAVE         FAIR      72  46  40 CALM      30.08R
NEEDLES        SUNNY     83  44  25 E7        29.97R
VICTORVILLE    SUNNY     72  39  30 SE5       30.09R

$$

CAZ039-040-221700-
VENTURA AND SANTA BARBARA COUNTY COAST


CITY           SKY/WX    TMP DP  RH WIND       PRES   REMARKS
CAMARILLO      SUNNY     71  59  65 CALM      29.98R
NWS OXNARD       N/A     70  61  73 CALM      29.98R
OXNARD AIRPORT SUNNY     67  58  72 VRB3      29.98R
*POINT MUGU    SUNNY     73  62  68 CALM      29.99R
SBA APT/GOLETA SUNNY     69  60  73 CALM      29.98R
*SANTA BARBARA   N/A     70  61  74 CALM      30.06R
*VENTURA         N/A     64  60  88 CALM      30.05R

$$

CAZ044-045-221700-
VENTURA COUNTY VALLEYS


CITY           SKY/WX    TMP DP  RH WIND       PRES   REMARKS
*SIMI VALLEY     N/A     70  60  70 CALM      29.95S
*OJAI            N/A     71  57  62 CALM      29.94R
*FILLMORE        N/A     68  60  75 CALM      29.89R

$$

CAZ053-221700-
VENTURA COUNTY MOUNTAINS


CITY           SKY/WX    TMP DP  RH WIND       PRES   REMARKS
*LOCKWOOD VLY    N/A    N/A N/A N/A MISG        N/A
*ROSE VALLEY     N/A     64  52  63 MISG        N/A

$$

CAZ034-035-036-221700-
CENTRAL COAST AND SANTA YNEZ VALLEY


CITY           SKY/WX    TMP DP  RH WIND       PRES   REMARKS
SAN LUIS OBISP CLOUDY    62  58  86 SE3       30.01R
SANTA MARIA    CLOUDY    65  58  78 CALM      30.01S

CITY           SKY/WX    TMP DP  RH WIND       PRES   REMARKS
*CAL POLY SLO    N/A     59  59 100 CALM        N/A
*LOMPOC        CLOUDY    64  55  72 CALM      30.02R
*PISMO BEACH     N/A     62  59  91 NE3       30.02R
*SANTA YNEZ    PTSUNNY   63  55  77 CALM      30.01S

$$

CAZ037-038-051-221700-
SAN LUIS OBISPO COUNTY INTERIOR AND CUYAMA VALLEY


CITY           SKY/WX    TMP DP  RH WIND       PRES   REMARKS
*CUYAMA          N/A     67  53  61 E2        29.97R
PASO ROBLES    CLOUDY    60  56  86 CALM      30.03S

$$

CAZ032-033-061-221700-
SOUTHERN DESERTS


CITY           SKY/WX    TMP DP  RH WIND       PRES   REMARKS
BLYTHE         SUNNY     85  52  32 CALM      29.94R
IMPERIAL       SUNNY     81  60  48 W3        29.90R
PALM SPRINGS   SUNNY     86  47  25 W3        29.94R
THERMAL        SUNNY     83  54  36 CALM      29.89R

$$

ELSEWHERE ACROSS THE WESTERN UNITED STATES AND MEXICO


CITY           SKY/WX    TMP DP  RH WIND       PRES   REMARKS
DENVER, CO     RAIN      60  55  83 SW13      30.24R
GRAND CANYON,  SUNNY     67  39  35 VRB6      30.36R
HONOLULU, HI   PTCLDY    77  70  78 N3        30.00R
KAHULUI, MAUI  CLEAR     70  66  88 S3        30.01R
LAKE TAHOE, CA SUNNY     53  41  63 CALM      30.26R
LAS VEGAS, NV  SUNNY     80  51  36 CALM      30.02R
MAMMOTH LAKES, FAIR      54  41  62 CALM      30.32R
MEXICO CITY, M MOSUNNY   66  54  63 E6        30.35S
PHOENIX, AZ    PTSUNNY   85  58  39 E3        29.98R
PORTLAND, OR   CLOUDY    63  55  75 S5        30.01F
RENO, NV       SUNNY     59  43  55 CALM      30.18R
SALT LAKE CITY MOSUNNY   66  54  65 S5        30.17R
SAN DIEGO, CA  MOSUNNY   72  61  68 NE6       30.00R
SAN FRANCISCO, PTSUNNY   68  58  70 W14       30.04R
SAN JOSE, CA   CLOUDY    63  57  81 VRB5      30.04R
SEATTLE, WA    CLOUDY    61  57  87 CALM      30.01R
TIJUANA, MEX   PTSUNNY   68  59  73 NW6       30.02

$$

STATION/POSITION TIME  TEMP    WIND        PRES    VSBY  WAVE
                       AIR SEA DIR/SP/G                  HT/PER
                 (UTC) (F)     (DEG/KT/KT) (MB)    (MI)  (FT/S)
POINT ARGUELLO B NOT AVBL
WEST SANTA BARBA 1600   63 64  340/ 17/ 21 1014.5R         4/11
POINT CONCEPTION NOT AVBL
EAST SANTA BARBA 1600   64 65  290/  4/  6 1015.4R
SANTA MONICA BAY 1600   67 71  260/  4/  6 1015.0R         2/15



USA.gov is the U.S. government's official web portal to all federal, state and local government web resources and services.